YB2NDX-15 Weather Reports


time (UTC)temp
F
wind
direction
speed
knots
gust
knots
rain 1hr
in
rain 24hr
in
rain mn
in
humidity
%
barometer
mb
20260505192059 80 0.0 0.0 0.00 0.00 0.00 1008.2
20260505191053 80 0.0 0.0 0.00 0.00 0.00 1008.3
20260505190046 80 0.0 0.0 0.00 0.00 0.00 1008.2
20260505185039 80 0.0 0.0 0.00 0.00 0.00 1008.2
20260505184034 80 0.0 0.0 0.00 0.00 0.00 1008.4
20260505183027 81 0.0 0.0 0.00 0.00 0.00 1008.4
20260505182020 81 0.0 0.0 0.00 0.00 0.00 1008.6
20260505180008 81 0.0 0.0 0.00 0.00 0.00 1008.8
20260505175000 81 0.0 0.0 0.00 0.00 0.00 1009.0
20260505173954 81 0.0 0.0 0.00 0.00 0.00 1008.9
20260505172947 81 0.0 0.0 0.00 0.00 0.00 1008.9
20260505171941 82 0.0 0.0 0.00 0.00 0.00 1009.1
20260505170934 82 0.0 0.0 0.00 0.00 0.00 1009.3
20260505165928 83 0.0 0.0 0.00 0.00 0.00 1009.3
20260505164922 82 0.0 0.0 0.00 0.00 0.00 1009.5
20260505163916 83 0.0 0.0 0.00 0.00 0.00 1009.6
20260505162910 83 0.0 0.0 0.00 0.00 0.00 1009.6
20260505161903 83 0.0 0.0 0.00 0.00 0.00 1009.7
20260505160857 83 0.0 0.0 0.00 0.00 0.00 1009.6
20260505152831 83 0.0 0.0 0.00 0.00 0.00 1009.4
20260505151825 83 0.0 0.0 0.00 0.00 0.00 1009.2
20260505150818 83 0.0 0.0 0.00 0.00 0.00 1009.2
20260505124643 85 0.0 0.0 0.00 0.00 0.00 1008.8
20260505123639 85 0.0 0.0 0.00 0.00 0.00 1008.8
20260505122625 85 0.0 0.0 0.00 0.00 0.00 1008.8
20260505120613 86 0.0 0.0 0.00 0.00 0.00 1008.5
20260505114600 86 0.0 0.0 0.00 0.00 0.00 1007.8
20260505113553 86 0.0 0.0 0.00 0.00 0.00 1007.8
20260505112546 86 0.0 0.0 0.00 0.00 0.00 1007.5
20260505111537 87 0.0 0.0 0.00 0.00 0.00 1007.5
20260505110530 87 0.0 0.0 0.00 0.00 0.00 1007.5
20260505101459 89 0.0 0.0 0.00 0.00 0.00 1007.0
20260505100453 89 0.0 0.0 0.00 0.00 0.00 1006.9
20260505094440 90 0.0 0.0 0.00 0.00 0.00 1006.7
20260505093433 91 0.0 0.0 0.00 0.00 0.00 1006.6
20260505091420 91 0.0 0.0 0.00 0.00 0.00 1006.5
20260505090413 92 0.0 0.0 0.00 0.00 0.00 1006.4
20260505085407 92 0.0 0.0 0.00 0.00 0.00 1006.3
20260505084400 92 0.0 0.0 0.00 0.00 0.00 1006.3
20260505083353 93 0.0 0.0 0.00 0.00 0.00 1006.2
20260505082347 96 0.0 0.0 0.00 0.00 0.00 1006.1
20260505081340 101 0.0 0.0 0.00 0.00 0.00 1006.3
20260505080333 95 0.0 0.0 0.00 0.00 0.00 1006.1
20260505075326 91 0.0 0.0 0.00 0.00 0.00 1006.0
20260505074320 90 0.0 0.0 0.00 0.00 0.00 1005.9
20260505073314 91 0.0 0.0 0.00 0.00 0.00 1006.0
20260505072308 93 0.0 0.0 0.00 0.00 0.00 1006.1
20260505071301 95 0.0 0.0 0.00 0.00 0.00 1006.1
20260505070255 95 0.0 0.0 0.00 0.00 0.00 1006.2
20260505065248 95 0.0 0.0 0.00 0.00 0.00 1006.2
20260505064241 96 0.0 0.0 0.00 0.00 0.00 1006.5
20260505063234 96 0.0 0.0 0.00 0.00 0.00 1006.6
20260505062228 95 0.0 0.0 0.00 0.00 0.00 1006.7
20260505060215 96 0.0 0.0 0.00 0.00 0.00 1007.0
20260505055208 95 0.0 0.0 0.00 0.00 0.00 1007.1
20260505054202 95 0.0 0.0 0.00 0.00 0.00 1007.2
20260505053155 94 0.0 0.0 0.00 0.00 0.00 1007.4
20260505051141 95 0.0 0.0 0.00 0.00 0.00 1007.6
20260505050135 94 0.0 0.0 0.00 0.00 0.00 1007.6
20260505041103 95 0.0 0.0 0.00 0.00 0.00 1008.5
20260505040056 95 0.0 0.0 0.00 0.00 0.00 1008.6
20260505035051 95 0.0 0.0 0.00 0.00 0.00 1008.8
20260505033038 93 0.0 0.0 0.00 0.00 0.00 1009.2
20260505032031 93 0.0 0.0 0.00 0.00 0.00 1009.3
20260505031025 93 0.0 0.0 0.00 0.00 0.00 1009.5
20260505030018 92 0.0 0.0 0.00 0.00 0.00 1009.5
20260505025011 92 0.0 0.0 0.00 0.00 0.00 1009.6
20260505022958 91 0.0 0.0 0.00 0.00 0.00 1009.5
20260505021951 91 0.0 0.0 0.00 0.00 0.00 1009.4
20260505020945 90 0.0 0.0 0.00 0.00 0.00 1009.4
20260505015938 90 0.0 0.0 0.00 0.00 0.00 1009.6
20260505014932 89 0.0 0.0 0.00 0.00 0.00 1009.6
20260505013924 88 0.0 0.0 0.00 0.00 0.00 1009.7
20260505012918 88 0.0 0.0 0.00 0.00 0.00 1009.7
20260505005858 87 0.0 0.0 0.00 0.00 0.00 1009.5
20260505004852 86 0.0 0.0 0.00 0.00 0.00 1009.4
20260505003845 86 0.0 0.0 0.00 0.00 0.00 1009.3
20260505002840 85 0.0 0.0 0.00 0.00 0.00 1009.2
20260505001833 84 0.0 0.0 0.00 0.00 0.00 1009.1
20260505000826 83 0.0 0.0 0.00 0.00 0.00 1009.0
20260504234813 81 0.0 0.0 0.00 0.00 0.00 1008.8
20260504233806 80 0.0 0.0 0.00 0.00 0.00 1008.8
20260504232800 80 0.0 0.0 0.00 0.00 0.00 1008.7
20260504231753 79 0.0 0.0 0.00 0.00 0.00 1008.6
20260504230747 79 0.0 0.0 0.00 0.00 0.00 1008.5
20260504225740 79 0.0 0.0 0.00 0.00 0.00 1008.4
20260504224735 79 0.0 0.0 0.00 0.00 0.00 1008.3
20260504223728 79 0.0 0.0 0.00 0.00 0.00 1008.1
20260504222722 79 0.0 0.0 0.00 0.00 0.00 1008.1
20260504221715 79 0.0 0.0 0.00 0.00 0.00 1008.0
20260504220709 79 0.0 0.0 0.00 0.00 0.00 1008.1
20260504215703 79 0.0 0.0 0.00 0.00 0.00 1008.0
20260504212643 80 0.0 0.0 0.00 0.00 0.00 1008.0
20260504211637 80 0.0 0.0 0.00 0.00 0.00 1007.9
20260504210630 79 0.0 0.0 0.00 0.00 0.00 1007.9
20260504205624 79 0.0 0.0 0.00 0.00 0.00 1007.9
20260504204617 79 0.0 0.0 0.00 0.00 0.00 1007.8
20260504203610 79 0.0 0.0 0.00 0.00 0.00 1007.9
20260504202604 80 0.0 0.0 0.00 0.00 0.00 1008.0
20260504201557 80 0.0 0.0 0.00 0.00 0.00 1008.0
20260504200551 80 0.0 0.0 0.00 0.00 0.00 1007.9
20260504195545 80 0.0 0.0 0.00 0.00 0.00 1008.0
20260504194539 80 0.0 0.0 0.00 0.00 0.00 1008.2
20260504193533 80 0.0 0.0 0.00 0.00 0.00 1008.1